Jaffrey, NH

5:54 PM EST on January 17, 2018 (GMT -0500)
Jaffrey Airport-Silver Ranch

Weather History for KAFN - October, 2012

Change the Weather History Date:

Tuesday, October 16, 2012

  Actual Average Record
Temperature  
Mean Temperature 48 °F -  
Max Temperature 57 °F 54 °F 69 °F (2014)
Min Temperature 36 °F 35 °F 28 °F (2006)
Degree Days  
Heating Degree Days 16    
Moisture  
Dew Point 36 °F    
Average Humidity 63    
Maximum Humidity 82    
Minimum Humidity 43    
Precipitation  
Precipitation 0.00 in - - ()
Sea Level Pressure  
Sea Level Pressure 29.73 in    
Wind  
Wind Speed 4 mph (WNW)    
Max Wind Speed 15 mph    
Max Gust Speed 25 mph    
Visibility 10 miles    
Events      
Averages and records for this station are not official NWS values.
T = Trace of Precipitation, MM = Missing Value Source: NWS Daily Summary

Daily Weather History Graph

Daily Weather History Graph

Search for Another Location

Airport or City:

Trip Planner

Search our weather history database for the weather conditions in past years. The results will help you decide how hot, cold, wet, or windy it might be!

Date:

Astronomy

Oct. 16, 2012 Rise Set
Actual Time 7:03 AM EDT 6:03 PM EDT
Civil Twilight 6:34 AM EDT 6:31 PM EDT
Nautical Twilight 6:01 AM EDT 7:04 PM EDT
Astronomical Twilight 5:28 AM EDT 7:37 PM EDT
Moon 8:25 AM EDT (10/16) 6:41 PM EDT (10/16)
Length of Visible Light 11h 57m
Length of Day
11h 00m
New Moon, 2% of the Moon is Illuminated
Oct 16
New Moon
Oct 21
First Quarter
Oct 29
Full
Nov 6
Last Quarter
Nov 13
New

Hourly Weather History & Observations

Time (EDT) Temp. Windchill Dew Point Humidity Pressure Visibility Wind Dir Wind Speed Gust Speed Precip Events Conditions
12:09 AM 60.8 °F - 55.4 °F 82% 29.63 in 10.0 mi Calm Calm - 0.00 in   Overcast
12:52 AM 57.9 °F - 51.1 °F 78% 29.63 in 10.0 mi Calm Calm - 0.00 in   Overcast
1:52 AM 57.0 °F - 50.0 °F 77% 29.63 in 10.0 mi Calm Calm - N/A   Overcast
2:52 AM 55.9 °F - 48.0 °F 75% 29.64 in 10.0 mi Variable 4.6 mph - N/A   Overcast
4:52 AM 52.0 °F - 39.9 °F 63% 29.62 in 10.0 mi Variable 4.6 mph - N/A   Overcast
5:52 AM 50.0 °F - 37.0 °F 61% 29.63 in 10.0 mi West 5.8 mph - N/A   Clear
6:52 AM 48.0 °F - 35.1 °F 61% 29.65 in 10.0 mi Variable 5.8 mph - N/A   Mostly Cloudy
8:52 AM 46.9 °F - 34.0 °F 61% 29.68 in 10.0 mi Variable 6.9 mph 21.9 mph N/A   Overcast
9:38 AM 46.4 °F 42.9 °F 32.0 °F 57% 29.67 in 10.0 mi Variable 6.9 mph 23.0 mph 0.00 in   Overcast
9:52 AM 46.9 °F - 33.1 °F 59% 29.70 in 10.0 mi WNW 9.2 mph 21.9 mph 0.00 in   Mostly Cloudy
10:52 AM 46.0 °F 40.2 °F 32.0 °F 58% 29.71 in 10.0 mi WNW 12.7 mph 20.7 mph N/A   Overcast
11:52 AM 46.9 °F - 30.9 °F 54% 29.72 in 10.0 mi NW 9.2 mph 19.6 mph N/A   Overcast
12:52 PM 50.0 °F - 30.9 °F 48% 29.70 in 10.0 mi West 15.0 mph 25.3 mph N/A   Mostly Cloudy
1:52 PM 51.1 °F - 30.9 °F 46% 29.69 in 10.0 mi WNW 10.4 mph 25.3 mph N/A   Clear
2:52 PM 52.0 °F - 30.9 °F 45% 29.70 in 10.0 mi NW 12.7 mph 23.0 mph N/A   Clear
3:52 PM 53.1 °F - 32.0 °F 45% 29.72 in 10.0 mi Variable 5.8 mph 16.1 mph N/A   Clear
4:52 PM 52.0 °F - 30.0 °F 43% 29.74 in 10.0 mi NNW 9.2 mph 18.4 mph N/A   Clear
5:52 PM 50.0 °F - 32.0 °F 50% 29.77 in 10.0 mi Calm Calm - N/A   Clear
6:52 PM 44.1 °F - 35.1 °F 71% 29.81 in 10.0 mi Calm Calm - N/A   Partly Cloudy
7:52 PM 42.1 °F - 34.0 °F 73% 29.83 in 10.0 mi Calm Calm - N/A   Clear
8:52 PM 41.0 °F - 33.1 °F 73% 29.86 in 10.0 mi Calm Calm - N/A   Clear
9:52 PM 42.1 °F - 32.0 °F 67% 29.88 in 10.0 mi Calm Calm - N/A   Clear
10:52 PM 37.9 °F - 32.0 °F 79% 29.90 in 10.0 mi Calm Calm - N/A   Clear
11:52 PM 36.0 °F 32.1 °F 30.9 °F 82% 29.91 in 10.0 mi South 4.6 mph - N/A   Clear